Regional Weather Roundup
Issued by NWS Midland/Odessa, TX

Home | Current Version | Previous Version | Text Only | Print | Product List | Glossary On
Versions: 1 2 3 4 5 6 7 8 9 10 11 12 13 14 15 16 17 18 19 20 21 22 23 24 25 26 27 28 29 30 31 32 33 34 35 36 37 38 39 40 41 42 43 44 45 46 47 48 49 50
000
ASUS44 KMAF 200510
RWRMAF
MIDLAND AREA WEATHER ROUNDUP
NATIONAL WEATHER SERVICE MIDLAND TX
1100 PM CST FRI DEC 19 2014

...IN SOUTHWEST TEXAS AND SOUTHEAST NEW MEXICO...

CITY           SKY/WX    TMP DP  RH WIND       PRES   REMARKS
ALPINE         CLEAR     33  26  75 SW7       30.23S WCI  27
ANDREWS        FAIR      34  33  98 SE6       30.17R FOG     WCI  29
ARTESIA        CLEAR     37  27  65 SW13      30.14R WCI  29
BIG SPRING     CLEAR     39  35  87 CALM      30.20R
CARLSBAD       CLEAR     39  27  62 W7        30.13R WCI  34
DRYDEN           N/A     47  38  71 N7        30.15R
FORT STOCKTON  CLEAR     45  33  63 S8        30.16R
GUAD PASS      NOT AVBL
HOBBS          CLEAR     32  32 100 E5        30.16R WCI  27
MARFA          CLEAR     28  21  74 NE3       30.18S
MIDLAND AIRPK  CLEAR     39  36  87 E5        30.19R WCI  36
MIDLAND INTL   CLEAR     39  35  86 E6        30.17R WCI  35
ODESSA         CLEAR     38  34  85 E7        30.17R FOG     WCI  33
PECOS          CLEAR     38  29  70 SW7       30.16R WCI  33
PRESIDIO       FAIR      48  31  51 N6        30.14R
SEMINOLE       PTCLDY    32  32  99 CALM      30.17R FOG
SNYDER         CLOUDY    42  38  85 CALM      30.19R
WINK           CLEAR     41  33  73 SE7       30.14R WCI  36
$$
...OTHER STATIONS IN TEXAS...

CITY           SKY/WX    TMP DP  RH WIND       PRES   REMARKS
ABILENE        CLOUDY    44  41  89 CALM      30.21R
AMARILLO       MOCLDY    36  33  89 S10       30.14R WCI  28
AUSTIN         CLOUDY    50  45  83 N15       30.19S
BROWNSVILLE    CLOUDY    61  57  87 N10       30.09F
CORPUS CHRISTI CLOUDY    59  53  80 N12       30.12S
DALLAS FTW     CLOUDY    47  43  86 N7        30.22R
DEL RIO        CLOUDY    56  52  86 NE6       30.15R
EL PASO        PTCLDY    38  28  67 E5        30.17R WCI  34
HOUSTON INT    CLOUDY    53  51  93 N13       30.14R
LUBBOCK        CLOUDY    38  36  92 SE8       30.15S WCI  32
SAN ANGELO     CLOUDY    46  40  79 E3        30.19S
SAN ANTONIO    CLOUDY    52  45  77 N10       30.16S
WACO           CLOUDY    48  45  89 N10       30.21S
WICHITA FALLS  NOT AVBL
$$
...OTHER LOCATIONS IN NEW MEXICO...

CITY           SKY/WX    TMP DP  RH WIND       PRES   REMARKS
ALAMAGORDO     CLEAR     32  27  80 N5        30.17S WCI  27
ALBUQUERQUE    PTCLDY    35  24  64 NW5       30.20R WCI  31
CANNON AFB     FOG       29  28  98 SE1       30.13R VSB 1/4
CLOVIS         CLOUDY    28  27  93 SE6       30.12S VSB 1/2 WCI  22
HOLLOMAN AFB   PTCLDY    31  27  85 N6        30.16R WCI  25
ROSWELL        CLEAR     37  22  54 NW3       30.14R
RUIDOSO        CLEAR     32  14  47 W10       30.17S WCI  24
SANTA FE       PTCLDY    26  19  74 NW8       30.13F WCI  18
TRUTH OR CONSE CLEAR     32  24  72 W5        30.16S WCI  27
TUCUMCARI      CLEAR     30  24  78 S7        30.09S WCI  23
$$



USA.gov is the U.S. government's official web portal to all federal, state and local government web resources and services.